Theta_e
297 296 297 296 297 297 297 297 296 295 295 296 296 295 293 291 289 287 287 286 286 286 287 288 291 293 296 299 296 296 297 300 301 301 301 301 302 303 304 308 307 315 325 329
297 298 297 297 298 297 297 296 295 294 294 296 294 292 291 291 289 287 286 286 286 285 286 288 290 292 294 297 297 297 303 306 306 304 303 302 303 305 305 319 320 322 326 328
297 298 298 297 297 298 296 296 295 294 294 296 294 293 292 291 290 287 286 285 284 284 285 286 289 290 293 294 298 302 302 303 305 306 306 306 306 306 307 315 320 325 327 328
297 299 298 297 298 295 290 295 293 294 292 295 296 295 294 288 288 286 285 284 283 283 284 286 288 289 291 292 294 298 299 299 300 304 305 306 309 310 309 320 321 327 327 329
297 298 298 293 298 295 291 293 293 294 293 291 298 293 290 288 286 284 282 282 281 282 283 285 287 287 290 289 291 293 295 296 297 301 304 306 310 314 316 317 310 318 323 325
297 295 295 297 295 294 293 291 294 297 294 287 293 292 289 285 284 282 281 280 281 282 282 283 285 286 287 288 288 291 291 292 294 298 299 302 307 311 311 309 303 302 309 314
295 297 296 294 293 293 290 290 292 293 290 290 293 292 289 284 283 280 279 278 280 281 282 282 284 284 285 286 286 289 289 289 291 294 293 296 297 301 299 299 296 295 297 300
291 296 294 293 289 290 292 286 293 296 295 293 293 288 291 283 282 278 278 279 280 280 281 281 283 283 284 285 285 286 286 286 287 288 289 291 292 293 292 293 291 290 290 290
287 292 295 293 291 290 294 293 292 289 292 293 294 292 286 286 282 278 276 279 279 279 280 281 282 282 282 283 284 284 284 284 285 285 286 287 288 289 287 289 288 288 287 288
290 293 295 294 291 291 292 291 293 292 293 296 298 294 288 281 279 277 276 279 278 278 279 280 281 281 281 282 282 282 282 282 283 283 283 283 283 285 285 285 284 284 286 286
290 290 294 293 285 287 291 291 291 291 293 291 295 296 281 280 277 275 276 278 278 279 278 279 280 280 279 280 281 281 281 281 281 281 281 281 281 282 282 281 282 281 283 284
293 289 292 289 283 287 290 287 288 287 293 291 291 291 284 280 278 279 279 278 278 279 278 279 279 279 278 279 280 280 280 280 280 280 280 280 279 279 280 279 279 280 280 280
291 293 290 294 292 292 287 291 289 287 289 289 289 288 282 278 279 278 278 278 277 278 278 277 278 278 278 278 279 279 279 279 279 280 280 279 279 278 278 277 277 277 277 276
294 291 290 294 291 282 288 286 289 288 282 284 288 288 284 281 279 277 277 277 276 277 277 278 278 278 278 278 279 279 279 279 279 279 279 279 279 278 278 278 277 276 276 276
291 289 288 284 279 282 286 285 284 283 280 286 287 284 284 279 276 276 276 276 276 276 277 277 277 277 278 278 278 278 278 279 278 278 278 278 278 278 278 277 277 277 276 276
291 290 288 291 280 277 285 284 282 282 278 279 275 280 277 275 272 273 274 275 275 276 276 276 276 276 277 277 276 277 277 277 278 277 277 277 277 277 277 277 277 276 276 276
288 288 286 289 284 288 290 287 278 278 273 280 286 282 271 274 272 270 272 273 274 274 274 274 275 275 275 276 276 276 276 277 276 276 276 276 276 276 276 276 276 276 276 276
289 288 291 294 283 288 288 273 277 282 279 274 274 274 272 273 271 270 271 272 273 272 272 273 273 274 275 275 275 275 275 275 275 275 275 275 275 275 275 275 275 276 276 276
288 290 288 290 295 289 293 288 284 288 291 278 279 273 271 270 272 272 267 267 268 267 271 272 273 273 274 275 275 275 274 274 274 274 274 274 275 275 276 276 275 275 275 275
293 287 287 293 292 287 288 282 281 280 295 279 278 277 277 280 282 278 265 266 270 272 272 273 274 274 274 274 274 275 274 274 274 274 275 276 275 275 275 274 274 274 274 274
293 292 288 284 297 290 285 286 287 295 298 279 280 277 280 280 276 268 269 269 272 272 273 274 274 274 274 275 275 274 274 274 274 275 275 275 275 275 274 274 274 274 274 273
291 290 289 293 296 293 285 289 292 290 274 277 281 279 280 269 266 268 268 269 272 273 273 274 274 274 274 274 275 274 274 274 275 275 275 274 274 274 274 274 273 273 274 273
294 294 293 294 295 285 288 285 279 276 283 277 282 278 280 273 272 272 272 272 273 273 273 274 274 273 273 274 274 274 274 274 274 274 273 274 274 274 274 274 274 274 274 274
293 291 293 293 290 289 287 279 276 278 283 282 284 281 280 277 274 273 273 273 273 273 273 273 273 273 273 273 273 274 273 273 274 274 274 274 274 274 274 275 274 274 274 273
294 292 293 292 291 286 288 287 286 281 281 283 281 281 280 277 275 274 274 274 273 273 273 273 273 273 273 273 273 273 273 273 274 274 274 275 275 275 275 274 274 274 273 273
291 294 296 296 293 294 293 289 286 285 284 284 282 280 278 278 275 275 275 274 273 273 274 273 273 273 273 273 273 273 273 273 274 274 273 274 274 273 273 273 273 273 273 273
Wind_Speed
4 4 3 5 3 5 6 9 10 11 9 10 4 3 6 5 11 12 14 14 15 16 19 24 27 27 28 27 17 14 16 12 11 11 14 17 16 17 18 21 21 21 21 26
4 1 3 6 5 5 8 11 6 8 3 7 3 4 5 7 8 13 14 16 17 19 21 24 28 28 27 25 20 17 15 14 13 9 12 14 18 19 20 17 20 19 21 27
2 2 6 5 6 11 8 4 5 8 8 1 3 5 1 5 5 15 15 15 17 18 18 19 23 25 27 27 27 18 16 16 15 14 13 13 15 18 19 17 21 20 21 29
4 3 4 6 5 6 6 5 11 11 2 1 3 4 2 8 9 17 17 16 17 18 17 18 20 24 25 26 23 18 16 18 17 17 16 14 17 18 16 12 10 12 19 25
2 4 4 4 9 5 9 17 11 5 2 3 3 0 2 6 13 19 18 19 17 17 17 17 18 24 22 24 21 17 16 18 20 18 15 16 15 14 6 2 3 15 18 24
5 5 2 0 10 1 12 5 1 2 2 2 3 3 3 3 7 15 16 16 18 18 18 17 23 23 22 23 23 17 17 21 20 18 15 13 6 3 6 6 4 16 20 21
5 1 3 5 6 3 9 6 3 4 4 5 4 2 4 3 3 7 14 16 17 17 16 17 17 22 24 24 24 20 21 22 22 17 16 14 13 12 11 11 10 15 23 24
3 6 5 4 4 4 5 3 2 3 4 5 4 3 4 6 4 4 9 10 14 16 15 16 18 21 22 22 23 22 21 20 20 19 18 16 16 16 19 18 15 26 28 28
3 5 1 4 1 2 5 4 1 2 3 3 3 2 3 4 9 9 10 14 14 16 16 15 18 19 20 20 21 20 20 20 21 22 23 24 24 24 21 24 25 32 34 34
3 4 2 3 3 2 3 4 1 0 3 4 5 4 4 10 16 14 13 14 14 15 15 14 16 19 19 19 19 22 22 23 23 26 27 28 27 28 25 28 34 36 41 42
4 3 2 3 2 3 3 3 2 2 1 1 4 4 3 4 9 10 9 11 11 13 13 13 16 19 20 20 22 23 24 25 26 29 30 32 31 31 30 35 36 37 46 45
4 3 3 7 4 4 3 4 2 2 3 2 1 5 3 4 6 8 11 12 10 11 12 12 17 17 20 21 22 23 25 27 27 28 33 34 35 33 31 37 35 43 46 43
3 0 4 7 3 2 1 4 2 3 1 3 0 6 4 2 7 9 10 10 10 11 12 10 14 16 17 20 21 23 26 27 30 30 34 36 35 33 30 32 31 42 44 38
4 2 6 5 7 2 6 2 1 3 2 2 5 11 8 7 10 10 10 10 9 10 10 9 10 14 17 20 21 22 25 28 29 33 36 37 33 30 28 25 37 45 43 48
3 2 2 6 2 3 5 5 1 4 4 4 3 4 10 6 7 9 9 11 10 10 11 10 10 13 18 20 21 23 24 27 31 36 37 34 32 29 26 28 40 41 43 42
1 2 2 4 3 2 4 5 4 3 3 6 1 5 3 1 3 5 6 7 7 7 8 8 9 13 15 17 17 19 21 26 31 33 30 32 29 26 27 29 39 44 44 44
1 2 2 4 3 0 5 6 4 3 3 4 1 5 1 4 2 3 3 4 4 6 6 6 8 11 15 16 18 22 25 28 31 29 26 24 24 26 30 30 35 38 40 40
4 3 1 2 4 4 6 1 4 5 5 6 3 4 4 4 4 4 3 1 3 4 4 5 6 11 15 18 21 22 23 21 22 23 25 27 25 25 30 33 36 38 38 37
3 3 1 2 1 7 1 4 6 6 6 9 7 3 4 4 1 4 4 4 3 3 1 5 12 14 19 22 22 24 23 21 26 25 24 22 27 30 32 35 33 32 35 34
4 3 3 2 4 4 7 4 5 3 4 10 6 6 7 7 3 4 5 4 3 7 8 13 17 21 20 18 21 24 23 23 22 21 24 25 26 26 28 28 28 29 30 30
2 2 3 3 4 7 6 5 5 5 6 8 11 6 7 4 3 3 8 4 5 7 11 12 14 19 16 16 18 22 20 21 19 21 21 21 21 23 23 24 24 25 25 23
7 7 4 3 1 5 7 5 7 5 3 5 8 10 9 4 0 4 6 6 8 9 10 12 15 14 13 14 16 17 16 16 18 19 19 20 20 20 20 21 20 20 19 19
3 6 4 8 5 3 14 5 3 3 6 6 8 6 12 10 6 9 6 8 12 12 14 13 14 14 12 14 16 19 18 18 20 20 20 20 19 18 16 17 17 16 13 14
5 4 3 3 2 6 12 3 3 6 4 6 6 11 13 12 13 9 10 11 13 17 19 20 20 20 18 18 18 18 19 19 20 20 19 18 18 17 16 15 14 13 12 12
3 5 4 6 7 2 7 12 10 5 5 8 9 7 14 15 14 13 12 16 18 21 22 22 24 23 22 21 21 21 19 19 18 17 16 15 14 13 13 12 11 10 9 8
6 7 6 6 6 3 4 8 12 11 10 12 13 11 11 17 16 18 15 21 22 24 27 26 25 24 24 24 23 21 19 17 15 16 16 15 14 13 10 8 9 7 6 4
Wind_Direction
354 43 340 298 252 228 260 290 284 294 307 312 306 327 346 358 15 0 1 358 351 346 335 343 349 349 347 347 338 347 350 353 346 307 292 294 292 294 299 298 278 271 260 231
10 340 274 278 276 291 299 300 284 296 305 332 32 295 309 9 18 8 3 354 351 345 345 346 349 350 351 351 355 355 359 1 355 335 308 293 296 294 297 298 280 271 256 224
160 259 299 321 326 338 318 217 289 286 327 179 144 274 278 346 342 5 3 353 353 352 339 342 346 346 350 354 359 10 7 359 359 346 323 307 297 295 302 293 291 265 231 197
232 273 303 332 315 13 316 196 316 291 92 250 153 283 140 348 345 0 355 353 348 345 343 345 344 346 348 352 355 4 7 5 0 357 344 321 295 282 294 297 293 207 197 206
244 310 338 9 325 1 251 312 290 235 155 60 194 107 236 1 343 345 347 347 345 344 344 338 344 344 346 355 354 359 10 14 7 4 353 329 289 278 280 268 165 128 140 153
267 290 132 277 319 222 326 335 217 84 75 12 233 134 288 350 333 328 338 339 340 341 343 343 348 348 354 358 360 3 13 23 18 14 5 10 12 98 106 117 82 92 109 120
329 284 31 48 323 340 16 351 353 357 360 231 262 127 249 171 356 324 326 328 337 342 346 347 351 354 355 358 2 8 19 23 23 22 27 37 46 90 97 106 97 93 97 101
44 334 25 355 125 243 357 90 51 296 316 296 316 251 286 173 134 330 328 318 340 343 347 346 350 351 352 358 8 16 22 26 29 34 38 50 64 78 85 102 95 88 89 93
58 284 62 66 351 152 333 39 255 255 215 295 268 236 135 237 353 353 342 346 346 345 347 346 346 352 356 4 15 25 31 35 39 46 49 52 70 80 77 92 93 89 91 96
224 340 138 124 357 6 93 331 114 223 341 300 305 292 257 337 334 340 344 349 344 344 347 343 349 359 4 11 22 35 42 45 49 59 56 53 64 82 80 85 86 89 95 98
154 113 307 69 351 209 350 359 355 277 222 247 308 289 168 260 299 311 327 345 344 342 343 343 351 360 6 21 32 37 43 48 51 60 64 64 63 77 74 79 82 89 95 96
187 154 285 227 250 244 121 219 197 116 308 281 260 278 154 232 293 332 339 348 355 351 344 347 354 4 13 22 34 42 46 52 55 62 68 65 66 72 73 80 85 86 88 88
212 175 11 358 32 280 173 233 190 189 338 247 214 278 165 220 360 348 346 353 351 356 353 352 2 8 16 26 36 50 54 58 61 65 69 67 64 64 66 73 81 85 87 85
121 144 148 196 223 156 315 242 269 148 123 244 235 293 310 347 349 339 351 352 349 354 355 3 12 18 25 36 42 50 60 66 69 69 70 69 65 66 72 82 84 85 86 89
130 213 175 259 234 159 265 260 232 195 202 181 249 267 297 330 335 336 342 356 357 1 0 6 11 17 26 33 45 55 64 72 76 74 73 70 74 74 76 77 81 84 85 86
35 256 92 305 344 164 290 253 227 192 253 266 270 285 254 320 12 351 342 336 343 353 1 7 20 31 37 42 39 54 60 67 78 79 79 82 87 83 78 77 82 87 88 87
103 115 52 278 304 54 340 236 200 254 218 175 33 227 314 320 307 250 291 330 352 0 12 16 31 41 48 51 56 55 62 72 73 78 82 83 82 82 83 84 86 84 84 87
136 113 135 283 357 16 246 202 164 207 233 210 302 242 187 215 252 255 256 234 19 19 9 11 46 80 75 75 76 79 79 75 82 79 82 89 92 91 95 91 91 94 96 92
129 140 99 101 209 289 132 215 167 168 269 184 196 202 193 197 165 292 205 190 196 238 255 78 84 83 93 98 101 102 96 87 87 89 101 108 106 101 101 98 102 103 102 98
128 115 123 153 114 191 235 247 167 142 309 174 166 174 184 177 122 234 186 188 178 153 142 130 125 112 101 98 107 107 103 104 102 106 105 106 108 111 110 110 107 104 101 104
201 218 178 187 238 284 236 172 168 85 240 157 163 165 163 207 196 163 134 126 137 115 106 100 91 92 99 112 117 108 109 103 110 115 117 117 116 117 116 115 112 109 107 106
173 157 196 147 207 303 162 79 170 209 352 152 157 160 168 154 126 117 121 137 151 138 131 124 119 116 125 133 133 122 120 125 126 125 125 128 127 123 121 115 110 104 101 98
282 192 186 189 214 233 196 171 217 176 151 194 158 156 154 141 175 157 158 157 168 165 155 151 146 146 151 155 154 146 145 147 146 144 139 133 125 119 114 109 108 103 99 92
243 172 219 35 277 216 206 210 231 181 205 147 143 148 155 155 158 161 164 177 179 178 174 170 168 167 168 173 171 162 158 160 158 148 140 136 130 123 116 111 107 102 93 89
198 134 194 264 266 347 241 217 191 192 164 134 129 153 162 153 169 167 174 181 186 186 186 184 184 180 175 176 175 169 168 168 164 153 146 142 138 135 129 117 100 94 89 71
188 187 175 221 220 203 173 203 170 168 185 172 151 144 158 164 167 171 180 184 184 189 191 193 194 190 184 181 180 178 178 179 180 170 169 166 161 153 147 141 132 124 109 129